Regional Weather Roundup
Issued by NWS

Home | Current Version | Previous Version | Text Only | Print | Product List | Glossary On
Versions: 1 2 3 4 5 6 7 8 9 10 11 12 13 14 15 16 17 18 19 20 21 22 23 24 25 26 27 28 29 30 31 32 33 34 35 36 37 38 39 40 41 42 43 44 45 46 47 48 49 50
000
ASUS43 KDTX 301701
RWRMI
MICHIGAN HOURLY REGIONAL WEATHER ROUNDUP
NATIONAL WEATHER SERVICE DETROIT/PONTIAC MI
100 PM EDT THU JUL 30 2015

NOTE: "FAIR" INDICATES FEW OR NO CLOUDS BELOW 12,000 FEET WITH NO
SIGNIFICANT WEATHER AND/OR OBSTRUCTION TO VISIBILITY.

MIZ047>049-052>055-059>063-066>070-074>076-081>083-301800-
SOUTHEAST LOWER MICHIGAN

CITY           SKY/WX    TMP DP  RH WIND       PRES   REMARKS
ADRIAN         SUNNY     80  57  45 NW8G22    30.01F
ALMA           MOSUNNY   81  57  43 W18G26    29.95F
ANN ARBOR      MOSUNNY   82  57  42 W12G22    29.98F
BAD AXE        SUNNY     78  58  50 W17G23    29.91S
CARO           SUNNY     82  59  45 W14G22    29.92S
DETROIT CITY   SUNNY     83  53  35 W13G24    29.95F
DETROIT        MOSUNNY   83  56  39 W17G24    29.97S
FLINT          MOSUNNY   84  56  38 W17G26    29.96S
GROSSE ILE     PTSUNNY   82  57  42 W9G17     29.96S
HILLSDALE      MOSUNNY   82  56  41 NW17      30.03S
HOWELL         SUNNY     83  51  33 NW15      29.98S

CITY           SKY/WX    TMP DP  RH WIND       PRES   REMARKS
JACKSON        MOSUNNY   81  58  45 W14       30.00F
LAMBERTVILLE   MOSUNNY   82  60  46 W9G25     30.00S
LANSING        SUNNY     82  55  39 NW17G25   29.98F
LAPEER         FAIR      80  55  40 W13G25    29.95S
MASON          MOSUNNY   78  57  47 W13       29.99S
MONROE         SUNNY     82  60  46 W13       29.98S
MT. CLEMENS    MOSUNNY   83  55  38 W16       29.92F
PONTIAC        MOSUNNY   81  54  39 NW20G26   29.96S
PORT HOPE        N/A     79  58  48 W15G22    29.87S
PORT HURON     MOSUNNY   79  57  47 W12G17    29.93S
TRI CITIES     SUNNY     83  56  39 W17       29.93S
MIDLAND        FAIR      82  52  34 W9G22     29.91F
TROY           MOSUNNY   83  51  32 W15G23    29.97S
SAGINAW HB     SUNNY     82  54  36 W16G22    29.92F
$$
MIZ043>046-050>051-056>058-064>065-071>073-077>080-301800-
SOUTHWEST LOWER MICHIGAN

CITY           SKY/WX    TMP DP  RH WIND       PRES   REMARKS
BATTLE CREEK   SUNNY     84  56  38 NW18G25   30.02S
BENTON HARBOR  SUNNY     79  63  57 W15       30.05S
BIG RAPIDS     SUNNY     80  46  30 W15G25    29.95F
COLDWATER      MOSUNNY   81  53  38 NW12G18   30.03S
FREMONT        FAIR      81  51  34 W15       29.98S
HOLLAND        SUNNY     78  62  57 W12       30.03S
GRAND RAPIDS   MOSUNNY   83  53  35 NW15G29   30.00S
IONIA          FAIR      83  52  35 W20G30    29.97F
KALAMAZOO      MOSUNNY   83  54  36 NW18G25   30.03S
LUDINGTON      SUNNY     78  63  60 SW13      29.97S
MARSHALL       MOSUNNY   82  57  42 W15G22    30.01S
MOUNT PLEASANT SUNNY     85  50  30 W17G24    29.93F
MUSKEGON       MOSUNNY   79  39  23 W12       30.00S
SOUTH HAVEN    SUNNY     76  61  59 W14G20    30.04S
$$
MIZ016>042-301800-
NORTHERN LOWER MICHIGAN

CITY           SKY/WX    TMP DP  RH WIND       PRES   REMARKS
ALPENA         SUNNY     85  51  31 NW13G29   29.82S
BEAVER ISLAND  SUNNY     76  59  55 SW14G20   29.86R
BELLAIRE       SUNNY     78  54  43 W9G20     29.89R
CADILLAC       SUNNY     81  51  34 W21G26    29.94S
CHARLEVOIX     SUNNY     77  59  53 W18G32    29.91R
FRANKFORT      SUNNY     76  62  63 W9G22     29.93S
GAYLORD        SUNNY     77  51  40 W18G29    29.89R
GRAYLING       SUNNY     82  50  33 W16G29    29.89F
HARBOR SPRINGS SUNNY     74  62  66 SW12G18   29.87R
HOUGHTON LAKE  MOSUNNY   81  52  36 W17       29.91F
MANISTEE       SUNNY     77  57  50 SW16G22   29.95S
OSCODA         MOSUNNY   86  51  29 W20G30    29.84S
PELLSTON       MOSUNNY   78  55  44 W15G23    29.85S
ROGERS CITY    PTSUNNY   80  55  42 W17G25    29.83S
TRAVERSE CITY  MOSUNNY   84  52  33 W23G30    29.89R
$$
MIZ007>008-015-301800-
EASTERN UPPER MICHIGAN

CITY           SKY/WX    TMP DP  RH WIND       PRES   REMARKS
KINROSS        CLOUDY    68  54  60 NW18G25   29.83R
MACKINAC ISLAN PTSUNNY   75  56  52 W16G24    29.83R
$$
MIZ004>006-011>014-085-301800-
CENTRAL UPPER MICHIGAN

CITY           SKY/WX    TMP DP  RH WIND       PRES   REMARKS
ESCANABA       MOSUNNY   81  54  39 W17G29    29.84R
MENOMINEE      SUNNY     81  54  39 W13G23    29.90R
SAWYER-GWINN   PTSUNNY   73  52  46 W23G30    29.88R
$$
MIZ001>003-009>011-084-301800-
WESTERN UPPER MICHIGAN

CITY           SKY/WX    TMP DP  RH WIND       PRES   REMARKS
HOUGHTON       SUNNY     71  53  52 W22G32    29.87R
COPPER HARBOR    N/A     70  53  54 N22G33    29.83R
IRONWOOD       MOSUNNY   73  57  56 W9        29.92F
$$

ABBREVIATIONS USED IN REMARKS
   TC - TEMPERATURE IN CELSIUS
  WCI - WIND CHILL INDEX
   HX - HEAT INDEX
  VSB - VISIBILITY



USA.gov is the U.S. government's official web portal to all federal, state and local government web resources and services.